Sarnia Airport, Ontario

1:55 PM EDT on July 23, 2016 (GMT -0400)
Sarnia (Hadfield)

Weather History for CYZR - November, 2012

Change the Weather History Date:

Friday, November 9, 2012

  Actual Average Record
Temperature  
Mean Temperature 39 °F -  
Max Temperature 46 °F 50 °F 73 °F (1999)
Min Temperature 32 °F 35 °F 17 °F (2003)
Degree Days  
Heating Degree Days 26    
Moisture  
Dew Point 34 °F    
Average Humidity 92    
Maximum Humidity 100    
Minimum Humidity 71    
Precipitation  
Precipitation 0.20 in - - ()
Sea Level Pressure  
Sea Level Pressure 30.15 in    
Wind  
Wind Speed 5 mph ()    
Max Wind Speed 10 mph    
Max Gust Speed -    
Visibility 4.7 miles    
Events      
Averages and records for this station are not official NWS values.
T = Trace of Precipitation, MM = Missing Value Source: Averaged Metar Reports

Daily Weather History Graph

Daily Weather History Graph

Search for Another Location

Airport or City:

Trip Planner

Search our weather history database for the weather conditions in past years. The results will help you decide how hot, cold, wet, or windy it might be!

Date:

Astronomy

Nov. 09, 2012 Rise Set
Actual Time 7:14 AM EST 5:11 PM EST
Civil Twilight 6:44 AM EST 5:41 PM EST
Nautical Twilight 6:10 AM EST 6:15 PM EST
Astronomical Twilight 5:37 AM EST 6:48 PM EST
Moon 2:05 AM EST (11/9) 2:29 PM EST (11/9)
Length of Visible Light 10h 56m
Length of Day
9h 56m
Waning Crescent, 23% of the Moon is Illuminated
Nov 9
Waning Crescent
Nov 13
New
Nov 20
First Quarter
Nov 28
Full
Dec 6
Last Quarter

Hourly Weather History & Observations

Time (EST) Temp. Windchill Dew Point Humidity Pressure Visibility Wind Dir Wind Speed Gust Speed Precip Events Conditions
12:00 AM 32.0 °F 25.6 °F 30.2 °F 93% 30.16 in 9.0 mi SSW 6.9 mph - N/A   Clear
12:12 AM 32.0 °F 25.6 °F 32.0 °F 100% 30.16 in 9.0 mi SSW 6.9 mph - N/A   Clear
12:13 AM 32.0 °F 25.6 °F 32.0 °F 100% 30.16 in 9.0 mi SSW 6.9 mph - N/A   Clear
12:30 AM 32.0 °F 25.6 °F 32.0 °F 100% 30.16 in 8.0 mi SSW 6.9 mph - N/A   Clear
12:31 AM 32.0 °F 25.6 °F 32.0 °F 100% 30.16 in 8.0 mi SSW 6.9 mph - N/A   Clear
12:49 AM 32.0 °F 25.6 °F 32.0 °F 100% 30.16 in 7.0 mi SSW 6.9 mph - N/A   Clear
12:50 AM 32.0 °F 25.6 °F 32.0 °F 100% 30.16 in 7.0 mi SSW 6.9 mph - N/A   Clear
1:00 AM 35 °F - 34 °F 93% 29.76 in - North 8.1 mph - -  
1:00 AM 32.0 °F 25.6 °F 32.0 °F 100% 30.16 in 7.0 mi SSW 6.9 mph - N/A   Clear
1:07 AM 32.0 °F 25.6 °F 32.0 °F 100% 30.16 in 7.0 mi SSW 6.9 mph - N/A   Clear
1:09 AM 32.0 °F 25.6 °F 32.0 °F 100% 30.16 in 7.0 mi SSW 6.9 mph - N/A   Clear
1:25 AM 33.8 °F 27.7 °F 32.0 °F 93% 30.16 in 7.0 mi SSW 6.9 mph - N/A   Clear
1:26 AM 33.8 °F 27.7 °F 32.0 °F 93% 30.16 in 7.0 mi SSW 6.9 mph - N/A   Clear
1:43 AM 32.0 °F 26.4 °F 32.0 °F 100% 30.16 in 6.0 mi SSW 5.8 mph - N/A   Clear
1:45 AM 32.0 °F 26.4 °F 32.0 °F 100% 30.16 in 6.0 mi SSW 5.8 mph - N/A   Clear
2:00 AM 33.8 °F 28.6 °F 32.0 °F 93% 30.17 in 6.0 mi SSW 5.8 mph - N/A   Clear
2:02 AM 33.8 °F 28.6 °F 32.0 °F 93% 30.17 in 6.0 mi SSW 5.8 mph - N/A   Clear
2:04 AM 33.8 °F 28.6 °F 32.0 °F 93% 30.17 in 6.0 mi SSW 5.8 mph - N/A   Clear
2:20 AM 32.0 °F 28.7 °F 32.0 °F 100% 30.17 in 6.0 mi SW 3.5 mph - N/A   Clear
2:22 AM 32.0 °F 28.7 °F 32.0 °F 100% 30.18 in 6.0 mi SW 3.5 mph - N/A   Clear
2:39 AM 33.8 °F 30.8 °F 32.0 °F 93% 30.18 in 6.0 mi SW 3.5 mph - N/A   Clear
2:41 AM 33.8 °F 30.8 °F 32.0 °F 93% 30.18 in 6.0 mi SW 3.5 mph - N/A   Clear
2:45 AM 33.8 °F 30.8 °F 32.0 °F 93% 30.18 in 5.0 mi SW 3.5 mph - N/A   Clear
2:58 AM 32.0 °F 28.7 °F 32.0 °F 100% 30.18 in 5.0 mi SW 3.5 mph - N/A   Clear
3:00 AM 32.0 °F 28.7 °F 32.0 °F 100% 30.18 in 5.0 mi SW 3.5 mph - N/A   Clear
3:17 AM 33.8 °F 28.6 °F 32.0 °F 93% 30.17 in 5.0 mi SW 5.8 mph - N/A   Clear
3:19 AM 33.8 °F 29.6 °F 32.0 °F 93% 30.17 in 5.0 mi SW 4.6 mph - N/A   Clear
3:36 AM 33.8 °F 29.6 °F 32.0 °F 93% 30.17 in 4.0 mi SW 4.6 mph - N/A   Clear
3:37 AM 32.0 °F 27.5 °F 32.0 °F 100% 30.17 in 4.0 mi SW 4.6 mph - N/A   Clear
3:54 AM 32.0 °F - 32.0 °F 100% 30.17 in 4.0 mi WSW 2.3 mph - N/A   Clear
3:56 AM 32.0 °F 28.7 °F 32.0 °F 100% 30.17 in 3.0 mi SW 3.5 mph - N/A   Clear
4:13 AM 33.8 °F 29.6 °F 33.8 °F 100% 30.17 in 3.0 mi SW 4.6 mph - N/A   Partly Cloudy
4:15 AM 33.8 °F 29.6 °F 33.8 °F 100% 30.17 in 3.0 mi SW 4.6 mph - N/A   Partly Cloudy
4:32 AM 33.8 °F 29.6 °F 32.0 °F 93% 30.17 in 3.0 mi SW 4.6 mph - N/A   Scattered Clouds
4:33 AM 33.8 °F 30.8 °F 32.0 °F 93% 30.17 in 3.0 mi SW 3.5 mph - N/A   Scattered Clouds
5:00 AM 32.0 °F 28.7 °F 32.0 °F 100% 30.17 in 3.0 mi SW 3.5 mph - N/A   Clear
5:09 AM 33.8 °F 30.8 °F 32.0 °F 93% 30.17 in 3.0 mi SW 3.5 mph - N/A   Clear
5:10 AM 33.8 °F 30.8 °F 32.0 °F 93% 30.17 in 3.0 mi SW 3.5 mph - N/A   Clear
5:27 AM 32.0 °F 28.7 °F 32.0 °F 100% 30.17 in 3.0 mi SSW 3.5 mph - N/A   Scattered Clouds
5:29 AM 32.0 °F 28.7 °F 32.0 °F 100% 30.17 in 3.0 mi SSW 3.5 mph - N/A   Scattered Clouds
5:46 AM 32.0 °F 27.5 °F 32.0 °F 100% 30.18 in 3.0 mi SSW 4.6 mph - N/A   Mostly Cloudy
5:47 AM 32.0 °F 27.5 °F 32.0 °F 100% 30.18 in 3.0 mi SSW 4.6 mph - N/A   Mostly Cloudy
6:00 AM 32.0 °F 28.7 °F 32.0 °F 100% 30.18 in 3.0 mi SSW 3.5 mph - N/A   Mostly Cloudy
6:05 AM 32.0 °F 28.7 °F 32.0 °F 100% 30.18 in 3.0 mi SSW 3.5 mph - N/A   Scattered Clouds
6:06 AM 32.0 °F 28.7 °F 32.0 °F 100% 30.18 in 3.0 mi SSW 3.5 mph - N/A   Scattered Clouds
6:24 AM 32.0 °F - 32.0 °F 100% 30.19 in 3.0 mi SW 2.3 mph - N/A   Mostly Cloudy
6:25 AM 32.0 °F - 32.0 °F 100% 30.19 in 3.0 mi SW 2.3 mph - N/A   Mostly Cloudy
6:42 AM 33.8 °F 30.8 °F 32.0 °F 93% 30.18 in 3.0 mi SSW 3.5 mph - N/A   Overcast
6:43 AM 33.8 °F 30.8 °F 32.0 °F 93% 30.18 in 3.0 mi SSW 3.5 mph - N/A   Overcast
7:00 AM 32 °F - 31 °F 97% 29.73 in - NNW 6.9 mph - -  
7:00 AM 33.8 °F 30.8 °F 33.8 °F 100% 30.19 in 4.0 mi SSW 3.5 mph - N/A   Overcast
7:02 AM 33.8 °F 30.8 °F 33.8 °F 100% 30.19 in 4.0 mi SW 3.5 mph - N/A   Overcast
7:20 AM 33.8 °F 29.6 °F 33.8 °F 100% 30.18 in 4.0 mi South 4.6 mph - N/A   Overcast
7:21 AM 33.8 °F 29.6 °F 33.8 °F 100% 30.18 in 4.0 mi South 4.6 mph - N/A   Overcast
7:38 AM 33.8 °F 28.6 °F 33.8 °F 100% 30.19 in 3.0 mi SSW 5.8 mph - N/A   Overcast
7:39 AM 33.8 °F 29.6 °F 33.8 °F 100% 30.19 in 3.0 mi SSW 4.6 mph - N/A   Overcast
8:00 AM 35.6 °F 30.7 °F 33.8 °F 93% 30.19 in 3.0 mi SSW 5.8 mph - N/A   Overcast
8:15 AM 35.6 °F 31.7 °F 33.8 °F 93% 30.20 in 3.0 mi SSW 4.6 mph - N/A   Overcast
8:16 AM 35.6 °F 31.7 °F 33.8 °F 93% 30.20 in 3.0 mi SSW 4.6 mph - N/A   Overcast
8:34 AM 35.6 °F 30.7 °F 35.6 °F 100% 30.20 in 3.0 mi South 5.8 mph - N/A   Overcast
8:35 AM 35.6 °F 29.9 °F 35.6 °F 100% 30.20 in 3.0 mi South 6.9 mph - N/A   Overcast
8:53 AM 37.4 °F 32.1 °F 35.6 °F 93% 30.19 in 3.0 mi SSW 6.9 mph - N/A   Overcast
8:54 AM 37.4 °F 32.1 °F 35.6 °F 93% 30.19 in 3.0 mi SSW 6.9 mph - N/A   Overcast
9:00 AM 37.4 °F 32.1 °F 35.6 °F 93% 30.20 in 3.0 mi SSW 6.9 mph - N/A   Overcast
9:10 AM 37.4 °F 32.1 °F 35.6 °F 93% 30.20 in 3.0 mi SSW 6.9 mph - N/A   Overcast
10:00 AM 39.2 °F 34.2 °F 37.4 °F 93% 30.20 in 4.0 mi SW 6.9 mph - N/A   Overcast
11:00 AM 41.0 °F 36.4 °F 37.4 °F 87% 30.19 in 4.0 mi SSW 6.9 mph - N/A   Haze
12:00 PM 44.6 °F 42.2 °F 37.4 °F 76% 30.18 in 5.0 mi SSW 4.6 mph - N/A   Haze
1:00 PM 35 °F - 32 °F 85% 29.68 in - WNW 5.8 mph - -  
1:00 PM 46.4 °F 42.4 °F 37.4 °F 71% 30.17 in 5.0 mi SSW 8.1 mph - N/A   Haze
2:00 PM 46.4 °F 41.9 °F 37.4 °F 71% 30.16 in 5.0 mi SSW 9.2 mph - N/A   Haze
3:00 PM 46.4 °F 42.4 °F 37.4 °F 71% 30.14 in 5.0 mi South 8.1 mph - N/A   Haze
3:25 PM 46.4 °F 42.9 °F 37.4 °F 71% 30.15 in 6.0 mi SSW 6.9 mph - N/A   Haze
4:00 PM 46.4 °F 42.9 °F 37.4 °F 71% 30.15 in 6.0 mi South 6.9 mph - N/A   Haze
5:00 PM 44.6 °F 42.2 °F 37.4 °F 76% 30.15 in 6.0 mi South 4.6 mph - N/A   Haze
5:27 PM 44.6 °F 40.2 °F 37.4 °F 76% 30.15 in 5.0 mi SSE 8.1 mph - N/A   Haze
6:00 PM 44.6 °F 40.7 °F 37.4 °F 76% 30.15 in 4.0 mi SSW 6.9 mph - N/A   Haze
7:00 PM 35 °F - 29 °F 73% 29.72 in - WNW 8.1 mph - -  
7:00 PM 44.6 °F 39.2 °F 37.4 °F 76% 30.15 in 4.0 mi South 10.4 mph - N/A   Haze
8:00 PM 46.4 °F 42.4 °F 39.2 °F 76% 30.14 in 4.0 mi South 8.1 mph - N/A   Haze
9:00 PM 46.4 °F 44.3 °F 39.2 °F 76% 30.16 in 5.0 mi South 4.6 mph - N/A   Haze
9:01 PM 46.4 °F 44.3 °F 39.2 °F 76% 30.16 in 6.0 mi South 4.6 mph - N/A   Haze
9:15 PM 46.4 °F 44.3 °F 39.2 °F 76% 30.16 in 5.0 mi SSE 4.6 mph - N/A   Haze
10:00 PM 44.6 °F 42.2 °F 39.2 °F 81% 30.16 in 5.0 mi SE 4.6 mph - N/A   Haze
11:00 PM 44.6 °F 42.2 °F 39.2 °F 81% 30.17 in 4.0 mi SE 4.6 mph - N/A   Haze